Theta_e
325 320 323 323 310 306 297 296 300 300 304 306 304 302 300 301 297 299 310 310 312 313 316 323 329 335 340 341 342 341 343 342 340 340 344 343 341 341 339 338 337 335 336 335 336 337 339 338 337
323 316 321 320 306 300 296 295 296 301 305 308 303 302 301 297 303 304 306 310 312 314 313 317 323 328 335 341 342 342 342 342 341 339 340 343 342 341 341 340 337 337 335 335 336 335 336 337 336
315 312 315 308 306 300 295 294 295 299 305 307 300 303 301 299 304 305 309 310 311 312 313 314 319 323 327 333 337 340 340 341 341 340 339 340 343 341 341 340 339 338 337 335 335 336 334 335 335
315 314 307 304 297 294 295 296 296 296 301 303 303 298 302 305 304 307 309 310 310 311 311 313 316 319 321 322 329 333 336 339 340 342 341 340 339 340 341 340 340 340 338 337 335 334 332 334 334
315 312 302 297 293 293 295 295 296 297 300 301 301 298 299 304 307 308 308 309 309 310 311 312 314 315 317 318 321 327 329 334 337 340 341 341 341 340 342 343 340 340 340 338 337 334 332 332 333
311 310 301 297 293 293 294 295 296 298 298 298 299 299 300 305 306 307 308 309 309 309 310 311 311 312 313 314 316 320 321 326 332 337 339 340 341 342 341 343 343 340 340 338 337 335 333 333 332
306 305 295 294 291 291 292 296 296 296 297 297 299 296 300 302 306 307 307 308 308 309 309 310 310 310 311 312 312 314 316 319 321 329 334 338 339 339 340 340 340 340 341 340 338 337 336 334 332
304 302 294 293 292 291 293 296 297 297 296 300 301 295 296 302 305 307 307 307 307 307 308 308 309 309 309 310 311 310 313 314 317 323 326 330 332 333 333 333 336 339 340 339 338 337 335 333 331
302 301 294 291 290 291 295 294 297 299 298 299 300 299 300 303 305 305 304 305 305 306 306 307 307 308 308 309 309 310 311 312 315 317 322 324 335 332 330 331 333 336 337 338 337 336 335 332 330
301 300 294 294 294 293 294 295 296 296 296 296 297 300 302 303 302 301 301 301 302 303 305 305 306 305 306 306 308 309 311 312 313 315 316 323 329 333 331 326 328 332 332 334 336 335 333 329 328
294 295 293 292 294 296 294 294 296 296 293 295 295 297 300 300 300 300 301 301 301 303 304 304 304 305 305 306 306 307 308 310 311 313 315 315 321 331 335 333 336 337 327 334 334 333 332 329 326
292 292 293 295 295 295 294 296 294 294 295 298 297 298 298 298 298 299 299 300 301 302 302 304 304 305 305 306 306 307 306 307 308 310 312 313 313 317 332 333 333 336 336 333 329 331 330 329 327
293 292 294 295 294 295 295 294 294 294 297 298 297 297 297 297 298 300 300 301 301 300 302 303 304 304 305 305 306 306 307 307 307 308 310 312 314 315 319 331 332 335 335 333 328 329 328 328 325
293 294 294 294 294 294 293 293 294 295 297 296 295 295 296 296 297 299 299 299 300 300 301 302 303 304 304 304 305 304 304 306 307 308 309 311 312 313 312 320 330 330 332 333 329 328 327 327 326
295 291 293 293 294 293 295 290 291 295 295 294 294 295 296 296 298 297 299 299 300 300 299 300 301 303 303 303 305 304 304 303 305 307 309 310 311 312 312 316 324 330 330 329 331 328 327 326 326
291 291 288 292 293 294 293 289 292 294 294 294 293 295 295 296 297 298 299 299 300 300 299 300 301 301 302 303 304 304 304 303 303 304 308 309 311 311 312 311 314 328 328 325 327 327 325 325 324
289 287 286 288 293 293 291 289 292 293 294 293 293 294 294 296 297 298 299 299 299 299 298 299 300 300 302 304 305 306 305 304 303 304 305 307 309 311 312 312 312 317 328 325 324 324 325 323 323
287 286 286 288 291 291 290 290 291 292 292 292 292 293 294 295 294 297 299 299 299 299 299 299 301 302 302 303 304 305 305 307 305 304 305 307 308 310 312 313 314 316 325 325 324 322 323 322 323
289 288 287 287 291 290 290 290 291 292 292 292 292 292 293 294 296 298 299 299 299 299 298 298 298 300 300 300 302 302 305 307 307 306 306 308 308 310 313 314 314 319 324 323 323 322 320 319 321
289 288 287 288 290 289 288 289 291 291 292 291 291 291 292 294 295 296 297 298 298 296 297 298 297 298 299 300 302 304 303 303 304 305 306 305 311 313 312 316 316 325 322 323 323 321 319 317 318
287 288 286 286 288 289 288 288 286 289 291 290 290 291 292 292 292 294 296 297 297 296 296 296 297 299 299 301 301 301 302 301 300 301 301 302 303 305 311 317 321 318 319 321 321 320 319 315 316
285 288 288 286 286 284 287 285 284 287 288 289 289 290 291 292 293 293 294 296 296 296 297 296 297 298 297 299 299 297 295 295 296 299 300 300 300 301 303 306 309 310 311 309 310 311 310 312 314
286 289 288 287 286 284 284 283 287 286 286 288 289 289 290 291 291 292 291 292 294 295 296 295 296 296 296 297 296 297 296 297 297 297 297 297 298 297 299 301 303 303 304 304 304 304 305 305 305
290 288 287 287 285 281 283 284 289 285 286 289 289 289 288 290 290 292 292 293 294 295 295 296 297 297 297 295 295 294 294 295 294 295 295 296 296 296 296 296 297 299 300 301 301 301 301 301 301
288 286 283 282 280 280 282 281 287 288 289 291 288 289 289 290 290 291 292 291 292 292 294 294 294 294 295 296 295 294 294 293 293 293 293 293 294 294 294 295 295 295 296 298 299 298 298 299 298
286 284 285 280 279 280 281 280 286 288 289 291 290 289 289 289 289 290 290 290 291 292 294 294 293 293 293 294 294 294 295 295 294 293 294 293 293 293 294 293 293 293 294 294 295 294 294 295 296
285 283 285 280 274 279 283 284 284 286 285 287 288 287 288 288 289 289 289 289 290 292 292 292 293 293 293 293 293 293 293 293 293 293 293 293 292 293 293 293 293 293 294 294 295 294 292 293 293
286 286 281 281 278 277 279 279 284 282 284 285 286 287 288 288 288 288 289 288 289 290 291 292 292 291 292 292 292 292 292 292 292 292 292 292 292 291 291 292 292 291 292 292 292 292 291 290 291
284 283 283 283 281 278 277 282 286 286 288 286 287 288 288 288 288 288 289 288 288 289 289 289 289 289 290 291 291 291 291 291 291 291 291 291 291 290 290 290 289 289 290 290 290 290 289 287 287
286 285 285 283 278 279 279 282 287 288 290 289 287 288 289 288 288 288 289 288 288 287 287 286 287 288 288 289 289 289 290 290 289 289 289 290 289 290 289 289 289 288 287 288 288 288 288 286 285
Wind_Speed
7 4 3 4 3 4 5 5 1 4 3 6 8 11 15 10 5 3 9 13 18 13 13 15 24 22 21 18 14 7 8 7 8 8 8 9 8 10 9 9 8 8 7 5 5 6 7 8 9
3 3 3 0 2 5 5 1 4 5 4 7 7 4 6 5 7 3 9 19 18 15 13 16 23 23 21 18 14 14 11 12 10 9 10 9 11 12 12 11 10 9 8 9 8 6 7 8 9
1 3 1 3 2 5 6 3 3 4 4 3 5 6 3 5 7 8 12 15 16 14 14 14 22 22 22 21 19 14 14 13 12 11 11 12 11 12 13 12 12 11 10 9 10 9 8 9 9
2 3 4 1 8 4 5 6 2 5 3 4 9 9 7 9 6 10 14 13 14 13 14 16 22 22 22 22 20 19 16 13 15 12 12 11 12 12 12 14 15 14 13 11 11 11 10 10 9
1 1 4 5 5 6 5 5 2 4 3 5 0 7 7 5 8 11 12 11 13 13 14 14 20 21 21 21 21 19 19 17 13 15 14 13 13 13 14 15 18 17 15 13 13 13 12 11 11
2 1 3 5 6 5 4 5 4 6 5 6 5 5 4 2 13 13 11 10 11 11 13 13 15 19 20 20 20 18 20 20 19 16 16 15 14 14 15 17 21 19 17 15 15 15 14 13 11
3 2 4 5 8 5 3 1 4 5 3 7 2 2 3 5 14 13 11 9 10 11 13 12 14 16 17 20 19 18 21 20 19 19 18 14 12 12 13 11 17 20 17 15 14 12 13 14 12
3 3 5 3 8 5 5 3 3 3 6 1 3 4 3 13 15 12 9 9 11 12 13 13 15 14 14 15 17 19 19 20 20 18 16 14 11 10 12 10 11 18 16 15 14 14 15 14 13
2 3 5 5 7 7 8 4 3 2 7 5 3 5 6 10 13 13 13 12 13 12 15 15 15 15 15 14 12 15 16 19 17 13 11 13 11 12 13 12 15 21 17 15 15 15 15 13 10
4 2 4 3 5 9 9 4 6 5 5 5 4 3 8 10 12 14 16 16 18 18 17 15 16 16 15 12 14 13 12 10 12 12 12 7 13 11 11 10 15 12 11 15 16 16 14 11 10
5 4 8 3 4 11 8 7 2 7 4 3 4 9 11 13 15 16 16 16 17 19 16 17 17 16 15 13 11 7 7 8 9 13 11 9 8 9 8 8 8 11 13 10 12 12 11 13 10
7 4 2 7 6 6 9 8 6 0 5 5 5 6 10 12 13 14 15 16 18 19 19 19 18 16 15 11 10 11 10 9 9 10 13 10 5 8 9 7 10 11 9 13 9 9 12 12 12
9 6 7 6 6 7 7 5 4 6 5 3 3 6 9 10 12 12 13 15 17 18 18 19 19 17 15 15 11 11 11 10 11 12 12 10 9 7 9 8 8 9 10 11 8 11 10 11 12
6 12 10 4 5 4 6 5 2 6 5 2 4 6 7 9 11 13 15 17 18 19 20 20 19 18 17 15 15 11 10 12 12 11 11 12 10 9 8 9 9 8 9 11 10 12 11 11 10
12 11 7 5 5 3 6 5 8 6 6 2 3 5 7 10 11 14 14 15 16 16 18 19 18 18 17 17 15 11 9 10 11 11 13 13 12 11 9 7 8 7 6 10 12 13 11 10 10
5 4 6 7 6 4 6 2 7 6 7 4 3 6 8 11 12 13 15 16 16 18 18 18 16 18 19 17 14 10 9 10 9 10 11 13 13 13 11 7 8 8 7 7 10 11 10 10 11
4 4 6 6 8 4 11 2 7 4 6 3 3 6 8 10 13 14 16 16 17 17 17 17 17 16 18 17 14 14 12 9 7 9 9 12 13 13 11 9 8 11 10 9 8 9 10 10 11
8 6 4 6 9 8 8 12 6 6 6 3 2 5 8 11 14 15 17 16 17 17 17 17 15 19 20 13 11 9 8 7 6 7 8 12 10 12 10 9 10 9 9 7 7 10 8 8 10
6 4 5 3 4 6 12 11 9 10 7 5 0 4 7 10 11 12 14 15 16 17 18 20 19 20 14 11 11 9 9 9 10 7 11 11 11 11 10 8 8 9 6 9 8 7 9 8 7
6 6 3 3 3 4 3 11 8 12 9 3 0 4 7 9 12 13 15 15 17 17 17 19 19 18 15 12 12 9 10 9 11 12 11 14 9 9 9 8 7 6 4 8 12 11 6 7 7
2 4 5 1 5 2 6 7 7 9 6 5 3 2 5 8 10 11 14 16 15 15 16 16 17 18 17 17 12 12 10 10 12 12 11 13 16 16 15 12 9 9 8 5 4 3 6 5 5
5 3 7 8 6 3 2 5 5 9 12 9 5 3 4 6 6 7 9 12 13 14 13 15 16 18 16 20 17 16 12 10 9 10 11 13 18 18 17 16 14 13 9 11 8 7 5 5 4
3 5 6 4 3 2 5 5 4 7 12 12 9 4 3 4 4 6 8 9 10 10 11 12 15 15 16 16 16 12 14 10 9 10 15 16 15 19 18 17 14 14 9 11 11 10 10 8 4
12 7 5 3 1 4 4 5 4 7 9 17 11 7 4 4 4 5 5 6 9 10 11 13 15 16 15 15 16 17 17 14 13 14 12 12 11 12 17 16 14 13 12 12 10 10 12 10 8
2 6 2 3 4 4 2 4 8 6 7 15 16 12 8 5 5 5 6 6 8 10 12 12 14 16 16 17 17 16 14 14 14 13 10 13 11 12 15 15 15 12 13 13 12 11 11 10 7
8 3 4 5 4 1 2 8 2 2 6 12 14 12 10 8 6 6 3 4 6 8 10 12 12 13 14 14 15 14 15 10 11 13 11 10 10 10 13 12 13 13 13 12 11 9 9 10 8
6 7 3 5 2 2 5 4 4 8 10 12 13 12 12 10 8 7 3 2 5 7 9 10 11 11 11 12 11 12 12 13 12 14 13 9 12 11 14 15 17 16 16 17 14 11 12 11 11
5 1 4 1 5 6 3 6 7 16 19 17 16 16 14 12 9 7 5 2 2 5 6 8 8 8 9 11 10 11 12 13 13 13 15 15 14 14 14 16 15 16 16 15 15 13 14 13 10
6 5 5 3 2 3 2 5 0 18 24 24 20 18 17 15 12 9 6 4 1 3 6 6 8 9 9 10 11 11 11 12 12 12 13 14 14 15 16 15 15 16 16 16 15 14 15 15 14
2 5 8 6 7 3 2 6 1 2 19 21 20 18 17 15 13 10 8 5 3 3 5 6 7 8 9 9 9 10 10 12 12 13 13 13 14 14 15 15 15 16 16 16 15 14 14 15 15
Wind_Direction
311 292 242 227 214 84 80 73 48 68 94 67 57 75 87 51 18 23 339 348 338 336 337 342 359 359 353 333 313 283 271 251 243 234 225 235 231 214 209 209 206 203 205 206 135 119 125 117 111
317 235 212 112 184 144 106 100 104 52 132 131 99 114 62 82 30 358 350 340 340 338 344 346 350 358 354 347 333 318 286 271 246 243 240 237 240 231 218 208 207 206 201 206 198 164 152 146 133
208 266 350 53 83 112 130 163 138 105 98 171 123 59 74 28 28 355 349 333 340 347 345 348 352 357 355 353 349 340 322 291 271 245 237 243 245 241 237 226 206 211 207 201 204 190 173 167 156
284 153 105 93 112 98 95 125 107 168 125 57 105 95 92 51 3 343 335 338 342 349 352 350 354 355 354 351 347 345 335 326 304 271 259 247 245 252 249 226 217 212 210 208 199 193 182 176 173
29 134 94 97 87 105 88 55 46 138 80 79 276 116 99 69 6 357 347 344 348 345 349 348 351 351 350 348 343 338 337 325 314 299 271 263 261 251 251 245 223 213 207 210 200 196 191 185 183
121 299 153 155 111 101 74 30 31 61 53 55 86 109 117 59 5 353 349 351 349 342 346 344 345 347 345 343 340 336 335 330 321 303 287 265 261 264 265 255 222 217 206 207 203 197 196 193 192
70 45 82 119 124 144 113 76 64 75 101 54 19 99 104 359 358 348 348 346 346 351 347 343 344 342 341 340 335 333 330 324 319 313 303 272 260 265 274 254 207 212 205 203 204 196 193 192 196
89 97 124 112 162 129 129 111 88 40 74 31 336 43 57 349 344 339 348 354 356 351 348 345 344 340 336 332 325 333 322 321 316 311 312 294 269 259 257 247 217 220 209 204 203 198 196 200 199
275 121 139 147 171 132 150 153 87 76 95 71 51 47 358 336 339 347 353 355 355 355 352 347 342 338 333 325 327 322 318 314 311 312 309 305 263 255 250 227 207 224 214 206 203 198 197 198 197
12 142 127 100 117 149 147 145 130 176 135 100 125 87 1 349 353 354 356 352 351 350 347 346 339 334 330 323 326 320 316 313 309 305 305 301 295 260 252 249 203 214 213 223 204 202 196 191 210
28 70 133 108 122 141 135 131 132 154 124 77 32 357 357 355 2 358 353 352 343 340 341 341 337 333 329 325 321 316 318 309 304 300 298 296 303 275 249 238 218 216 210 219 208 204 210 209 216
102 77 101 132 130 140 153 133 135 126 92 93 50 6 2 1 357 354 350 346 341 339 341 338 338 333 331 326 320 317 311 310 298 294 295 291 289 297 254 242 234 216 207 210 209 211 215 219 216
88 123 106 109 110 99 132 129 130 141 134 122 40 22 8 358 355 354 352 347 344 343 341 341 338 337 333 326 321 316 313 307 302 293 284 282 280 279 294 242 236 234 218 210 201 220 218 217 221
112 123 116 130 124 120 147 135 226 170 166 169 22 15 4 1 359 354 357 351 349 342 347 338 341 338 331 327 318 309 302 304 301 292 284 279 277 276 285 294 236 225 228 219 210 214 218 223 219
119 106 117 134 151 138 146 193 223 156 180 207 346 7 2 9 4 6 355 350 347 348 341 344 339 333 330 324 319 308 297 291 291 290 289 282 275 271 270 283 268 217 220 241 220 219 221 225 222
108 154 175 169 184 153 206 217 168 169 198 227 341 2 1 15 13 5 358 355 352 353 352 346 340 337 332 325 315 310 300 290 281 290 290 286 282 276 270 266 275 235 204 213 229 222 219 224 226
190 196 203 176 209 169 212 314 155 171 206 216 346 358 2 6 15 6 359 358 358 358 352 349 345 338 335 323 320 319 308 289 275 279 282 283 283 275 264 256 257 297 209 211 211 230 229 225 228
179 198 196 197 182 210 209 251 179 183 210 207 323 3 7 14 13 1 0 1 358 2 358 351 353 354 347 334 321 311 298 306 290 276 276 283 282 278 270 263 256 244 235 209 215 226 224 232 232
125 150 158 118 140 212 230 250 217 189 196 199 285 11 16 20 17 8 6 4 4 7 3 3 360 356 346 337 344 347 341 348 333 306 294 286 272 282 276 263 255 254 260 213 212 220 222 240 234
136 147 152 121 154 238 252 257 233 191 199 192 66 25 15 15 22 14 9 11 14 6 5 7 2 355 354 351 2 8 16 5 8 360 10 353 336 289 278 269 261 281 275 249 220 213 213 196 196
157 195 172 30 159 215 291 247 196 193 181 156 126 51 31 25 23 9 12 18 15 10 8 3 6 11 10 6 16 15 10 14 8 2 4 10 15 21 21 21 27 28 10 290 280 273 230 233 224
191 158 143 139 189 252 297 287 198 182 192 195 167 111 48 40 42 17 12 18 14 11 12 13 17 18 13 12 22 22 23 21 4 10 15 19 22 23 26 25 28 36 30 29 21 26 59 12 298
105 135 115 118 144 297 184 243 128 180 206 195 179 149 94 65 45 23 7 9 10 10 17 17 20 19 20 16 26 17 22 17 22 24 30 27 25 29 25 25 29 33 29 33 28 25 21 39 28
139 109 81 86 166 235 142 243 215 191 209 184 164 156 139 106 75 53 38 42 44 28 24 25 26 26 25 21 19 19 17 14 23 18 21 20 22 23 26 24 27 27 29 23 23 30 34 35 27
248 170 188 215 195 258 129 207 280 190 185 177 162 158 153 139 108 86 74 42 20 18 20 22 24 25 22 23 25 22 18 14 19 16 15 19 19 19 17 19 22 22 21 29 27 27 32 40 43
199 274 226 227 215 104 136 232 197 105 128 147 148 150 149 149 143 127 98 18 28 23 22 29 28 29 25 26 24 26 25 23 27 23 23 22 22 17 15 16 21 19 23 17 18 21 18 9 9
175 217 20 99 60 266 212 232 183 154 146 154 157 165 165 159 158 149 130 57 27 29 26 35 28 28 27 30 26 26 24 32 28 29 30 25 23 19 24 24 25 23 21 20 21 22 17 14 14
247 55 145 255 215 241 199 268 228 191 184 179 177 180 173 167 174 170 161 164 47 46 33 37 38 34 24 27 30 29 27 30 29 30 32 29 25 26 23 25 27 25 25 23 23 23 17 18 14
166 198 215 271 216 245 262 237 74 198 188 181 182 183 178 176 181 172 168 179 85 65 58 33 26 24 31 30 31 31 30 34 35 33 32 30 29 25 26 27 25 24 23 21 22 23 21 25 19
274 249 202 215 195 236 308 266 104 209 186 181 179 183 182 179 179 174 174 175 142 69 62 44 31 24 26 31 34 39 34 37 39 34 32 28 29 31 30 28 30 28 23 20 22 22 21 22 21